Location: Maccacari
(45.1333°N, 11.1333°E)
Time: 14:54:15
(UTC+00:00)

Transit 4A - Visible Passes

Search period start: 25 January 2021 00:00
Search period end: 04 February 2021 00:00
Orbit: 864 x 980 km, 66.8° (Epoch: 25 January)

Date Brightness Start Highest point End Pass type
(mag) Time Alt. Az. Time Alt. Az. Time Alt. Az.
25 Jan 7.9 17:50:33 10° SSW 17:56:54 70° ESE 18:01:26 20° NE visible
25 Jan 9.5 19:38:21 10° W 19:43:50 29° NW 19:44:59 27° NNW visible
26 Jan 8.0 17:59:47 10° SSW 18:06:13 84° WNW 18:11:11 18° NNE visible
26 Jan 9.8 19:48:35 10° W 19:53:31 23° NW 19:54:44 22° NNW visible
27 Jan 8.4 18:09:14 10° SW 18:15:35 62° NW 18:20:50 16° NNE visible
27 Jan 10.1 19:59:02 10° WNW 20:03:18 18° NNW 20:04:23 17° NNW visible
28 Jan 8.9 18:18:56 10° WSW 18:25:04 45° NW 18:30:24 14° NNE visible
28 Jan 10.3 20:09:40 10° WNW 20:13:09 15° NNW 20:13:56 15° NNW visible
29 Jan 8.2 16:41:41 10° SSW 16:47:55 56° ESE 16:54:08 10° NE visible
29 Jan 9.4 18:28:50 10° WSW 18:34:37 34° NW 18:39:53 12° NNE visible
29 Jan 10.4 20:20:31 10° NW 20:23:04 12° NNW 20:23:25 12° NNW visible
30 Jan 8.0 16:50:46 10° SSW 16:57:10 79° ESE 17:03:34 10° NE visible
30 Jan 9.7 18:38:56 10° W 18:44:14 26° NW 18:49:18 11° NNE visible
30 Jan 10.6 20:31:40 10° NNW 20:32:50 11° NNW 20:32:50 11° NNW visible
31 Jan 8.2 17:00:05 10° SW 17:06:30 76° WNW 17:12:54 10° NNE visible
31 Jan 10.0 18:49:15 10° W 18:53:57 21° NW 18:58:38 10° NNE visible
01 Feb 8.7 17:09:38 10° SW 17:15:55 55° NW 17:22:10 10° NNE visible
01 Feb 10.2 18:59:47 10° WNW 19:03:45 17° NNW 19:07:43 10° N visible
02 Feb 9.1 17:19:24 10° WSW 17:25:25 41° NW 17:31:24 10° NNE visible
02 Feb 10.3 19:10:29 10° NW 19:13:38 14° NNW 19:16:45 10° N visible
03 Feb 9.5 17:29:23 10° WSW 17:35:00 31° NW 17:40:34 10° NNE visible
03 Feb 10.4 19:21:26 10° NW 19:23:35 12° NNW 19:25:42 10° N visible
